Regional Weather Roundup
Issued by NWS Cleveland, OH

Home | Current Version | Previous Version | Graphics & Text | Print | Product List | Glossary On
Versions: 1 2 3 4 5 6 7 8 9 10 11 12 13 14 15 16 17 18 19 20 21 22 23 24 25 26 27 28 29 30 31 32 33 34 35 36 37 38 39 40 41 42 43 44 45 46 47 48 49 50
000
ASUS41 KCLE 251310
RWRCLE
OHIO REGIONAL WEATHER ROUNDUP
NATIONAL WEATHER SERVICE CLEVELAND, OH
900 AM EDT MON MAY 25 2015

NOTE: "FAIR" INDICATES FEW OR NO CLOUDS BELOW 12,000 FEET WITH NO
SIGNIFICANT WEATHER AND/OR OBSTRUCTIONS TO VISIBILITY.

OHZ001>008-015>018-024>027-034-035-043-044-251400-
   NORTHWEST OHIO

CITY           SKY/WX    TMP DP  RH WIND       PRES   REMARKS
DEFIANCE       LGT RAIN  70  62  76 S10       30.02S
FINDLAY        CLOUDY    74  58  57 S17G28    30.05F
TOLEDO EXPRESS CLOUDY    73  59  61 SW12G26   30.03R
TOLEDO EXEC    CLOUDY    75  57  53 S16G23    30.04S
LIMA           CLOUDY    72  58  61 S17G31    30.06F
$$

OHZ009>014-019>023-028>033-038-089-251400-
   NORTHEAST OHIO

CITY           SKY/WX    TMP DP  RH WIND       PRES   REMARKS
CLE-HOPKINS    CLOUDY    71  55  56 S14       30.12R
CLE-LAKEFRONT  CLOUDY    73  55  53 S13       30.08S
CUY CO. ARPT   PTSUNNY   72  57  60 S12G21    30.11S
LORAIN-ELYRIA  CLOUDY    71  57  61 S12       30.10S
ASHTABULA      MOSUNNY   70  55  59 S12       30.14S
AKRON-CANTON   PTSUNNY   70  54  56 S12       30.16R
WOOSTER        CLOUDY    70  54  56 S13       30.15R
MANSFIELD      CLOUDY    70  56  61 S16       30.13S
YOUNGSTOWN     PTSUNNY   68  54  60 S8        30.16S
$$

OHZ042-051>053-060>062-070>072-077>081-251400-
  SOUTHWEST OHIO

CITY           SKY/WX    TMP DP  RH WIND       PRES   REMARKS
CINC-COVINGTON LGT RAIN  69  60  73 SW15G23   30.16R
CINC-LUNKEN    LGT RAIN  70  59  68 SW13G21   30.15R
HAMILTON       CLOUDY    72  58  61 SW13G20   30.14R
DAYTON         CLOUDY    73  59  61 S15G24    30.11S
WRIGHT-PAT AFB CLOUDY    72  58  61 S13G21    30.11S
DAYTON GENERAL CLOUDY    70  58  65 SW12      30.12R
WILMINGTON     CLOUDY    72  54  53 S17G25    30.14R
$$

OHZ036-037-039>041-045>050-054>059-063>069-073>076-082>088-251400-
  CENTRAL AND SOUTHEAST OHIO

CITY           SKY/WX    TMP DP  RH WIND       PRES   REMARKS
COLUMBUS       CLOUDY    70  55  59 S7        30.14S
OSU AIRPORT    CLOUDY    69  55  60 S10       30.14R
BOLTON FIELD   MOSUNNY   68  57  68 S8        30.15R
RICKENBACK AFB CLOUDY    69  55  62 S10       30.15R
NEWARK         PTSUNNY   69  56  62 S6        30.16R
MARION         CLOUDY    71  56  58 S14G22    30.12S
LANCASTER      CLOUDY    71  54  54 S9        30.16S
ZANESVILLE     PTSUNNY   67  54  63 S9        30.18R
NEW PHILLY     PTSUNNY   73  55  53 S7        30.18R
$$


USA.gov is the U.S. government's official web portal to all federal, state and local government web resources and services.